EW5770 Weather Reports


Display with metric or nautical units.
time (UTC)temp
F
wind
direction
speed
MPH
gust
MPH
rain 1hr
in
rain 24hr
in
rain mn
in
humidity
%
barometer
mb
20260510035954 59 0 0.0 0.0 0.00 0.00 0.00 89 1012.7
20260510033954 60 0 0.0 0.0 0.00 0.00 0.00 87 1012.6
20260510031955 59 0 0.0 0.0 0.00 0.00 0.00 87 1012.7
20260510030958 59 0 0.0 0.0 0.00 0.00 0.00 87 1012.9
20260510025954 60 0 0.0 0.0 0.00 0.00 0.00 86 1013.0
20260510023958 60 0 0.0 0.0 0.00 0.00 0.00 84 1013.1
20260510022954 60 0 0.0 0.0 0.00 0.00 0.00 84 1013.1
20260510021958 60 0 0.0 0.0 0.00 0.00 0.00 84 1013.1
20260510020954 60 0 0.0 0.0 0.00 0.00 0.00 84 1012.9
20260510015954 60 0 0.0 0.0 0.00 0.00 0.00 83 1012.8
20260510014955 60 0 0.0 0.0 0.00 0.00 0.00 82 1012.8
20260510013954 60 0 0.0 0.0 0.00 0.00 0.00 81 1012.8
20260510012954 60 0 0.0 0.0 0.00 0.00 0.00 82 1012.9
20260510010954 61 0 0.0 0.0 0.00 0.00 0.00 79 1013.1
20260510005954 61 0 0.0 0.0 0.00 0.00 0.00 80 1013.3
20260510003954 60 0 0.0 0.0 0.00 0.00 0.00 81 1013.6
20260510002956 60 0 0.0 0.0 0.00 0.00 0.00 82 1013.9
20260510001955 60 0 0.0 0.0 0.00 0.00 0.00 82 1014.1
20260509235955 60 0 0.0 0.0 0.00 0.00 0.00 81 1014.4
20260509233954 60 0 0.0 0.0 0.00 0.00 0.00 80 1014.3
20260509233007 60 0 0.0 0.0 0.00 0.00 0.00 80 1014.3
20260509231955 59 0 0.0 0.0 0.00 0.00 0.00 82 1014.5
20260509230954 59 0 0.0 0.0 0.00 0.00 0.00 84 1014.6
20260509224954 60 0 0.0 0.0 0.00 0.00 0.00 81 1014.4
20260509224004 60 0 0.0 0.0 0.00 0.00 0.00 80 1014.1
20260509222958 60 0 0.0 0.0 0.00 0.00 0.00 80 1013.7
20260509220954 60 0 0.0 0.0 0.00 0.00 0.00 80 1014.0
20260509215958 60 0 0.0 0.0 0.00 0.00 0.00 80 1013.9
20260509214958 61 0 0.0 0.0 0.00 0.00 0.00 79 1014.1
20260509211954 61 0 0.0 0.0 0.00 0.00 0.00 79 1014.7
20260509210958 61 0 0.0 0.0 0.00 0.00 0.00 79 1014.8
20260509205955 62 0 0.0 0.0 0.00 0.00 0.00 77 1014.7
20260509203955 62 0 0.0 0.0 0.00 0.00 0.00 79 1014.6
20260509202954 62 0 0.0 0.0 0.00 0.00 0.00 79 1014.5
20260509200954 63 0 0.0 0.0 0.00 0.00 0.00 77 1014.4
20260509195954 63 0 0.0 0.0 0.00 0.00 0.00 78 1014.2
20260509194957 64 0 0.0 0.0 0.00 0.00 0.00 77 1014.1
20260509193955 64 0 0.0 0.0 0.00 0.00 0.00 76 1014.2
20260509192956 64 0 0.0 0.0 0.00 0.00 0.00 77 1014.1
20260509191955 64 0 0.0 0.0 0.00 0.00 0.00 76 1014.0
20260509190000 65 0 0.0 0.0 0.00 0.00 0.00 76 1013.7
20260509184955 66 0 0.0 0.0 0.00 0.00 0.00 75 1013.6
20260509183958 66 0 0.0 0.0 0.00 0.00 0.00 75 1013.5
20260509182955 67 0 0.0 0.0 0.00 0.00 0.00 74 1013.4
20260509181956 67 0 0.0 0.0 0.00 0.00 0.00 72 1013.4
20260509180955 67 0 0.0 0.0 0.00 0.00 0.00 72 1013.4
20260509175955 67 0 0.0 0.0 0.00 0.00 0.00 72 1013.4
20260509174954 68 0 0.0 0.0 0.00 0.00 0.00 71 1013.3
20260509173955 69 0 0.0 0.0 0.00 0.00 0.00 69 1013.3
20260509171955 69 0 0.0 0.0 0.00 0.00 0.00 68 1013.1
20260509165954 69 0 0.0 0.0 0.00 0.00 0.00 64 1013.3
20260509164955 70 0 0.0 0.0 0.00 0.00 0.00 63 1013.4
20260509163955 70 0 0.0 0.0 0.00 0.00 0.00 64 1013.5
20260509162955 70 0 0.0 0.0 0.00 0.00 0.00 63 1013.6
20260509161955 70 239 0.0 1.0 0.00 0.00 0.00 59 1013.8
20260509161000 71 224 0.0 1.0 0.00 0.00 0.00 59 1014.1
20260509153955 72 208 0.0 5.0 0.00 0.00 0.00 59 1014.3
20260509152955 72 158 1.0 3.0 0.00 0.00 0.00 58 1014.4
20260509151957 71 240 1.0 9.0 0.00 0.00 0.00 59 1014.4
20260509150955 72 193 1.0 9.0 0.00 0.00 0.00 59 1014.4
20260509150001 71 188 2.0 6.0 0.00 0.00 0.00 60 1014.5
20260509144955 72 167 1.0 2.0 0.00 0.00 0.00 58 1014.7
20260509142956 72 240 2.0 9.0 0.00 0.00 0.00 60 1014.8
20260509141955 72 229 3.0 10.0 0.00 0.00 0.00 59 1014.8
20260509140955 72 226 0.0 2.0 0.00 0.00 0.00 59 1014.9
20260509133956 73 231 1.0 6.0 0.00 0.00 0.00 59 1015.2
20260509133005 72 252 0.0 1.0 0.00 0.00 0.00 61 1015.2
20260509131955 73 198 2.0 4.0 0.00 0.00 0.00 60 1015.3
20260509130955 72 171 1.0 8.0 0.00 0.00 0.00 61 1015.5
20260509125955 72 162 2.0 5.0 0.00 0.00 0.00 61 1015.6
20260509123955 72 213 1.0 5.0 0.00 0.02 0.00 63 1015.7
20260509122956 71 234 0.0 1.0 0.00 0.02 0.00 63 1015.8
20260509121957 71 148 2.0 2.0 0.00 0.02 0.00 64 1015.9
20260509120955 71 232 2.0 6.0 0.00 0.02 0.00 65 1015.9
20260509115955 70 230 2.0 11.0 0.00 0.02 0.00 66 1015.9
20260509114956 70 244 3.0 8.0 0.00 0.02 0.00 65 1016.0
20260509113956 70 240 7.0 13.0 0.00 0.02 0.00 66 1016.1
20260509112956 70 237 4.0 12.0 0.00 0.02 0.00 65 1016.2
20260509111955 70 233 5.0 10.0 0.00 0.02 0.00 65 1016.3
20260509110955 70 242 6.0 12.0 0.00 0.02 0.00 65 1016.3
20260509104955 70 235 4.0 14.0 0.00 0.02 0.00 66 1016.2
20260509103955 71 203 5.0 9.0 0.00 0.02 0.00 65 1016.1
20260509101956 71 224 4.0 7.0 0.00 0.02 0.00 65 1016.1
20260509100956 70 238 5.0 11.0 0.00 0.02 0.00 65 1016.1
20260509095955 71 197 3.0 8.0 0.00 0.02 0.00 63 1016.2
20260509094957 71 225 4.0 7.0 0.00 0.02 0.00 63 1016.2
20260509093955 71 189 2.0 8.0 0.00 0.02 0.00 63 1016.2
20260509093001 71 233 2.0 1.0 0.00 0.02 0.00 63 1016.2
20260509091956 71 235 1.0 5.0 0.00 0.02 0.00 63 1016.3